This demonstration page uses our WeatherBlox Daily Observations layout. Learn more.

Left ArrowRight Arrow

Hourly Observations for September 23, 2022

Temp ( °F °C ) Dew Point ( °F °C ) Humidity (%) Winds ( mph kmh ) Pressure ( in mb ) Visibility ( mi km ) Precip ( " mm )
12:16 am 00:16 Mostly Cloudy with Light Rain 69 20.6 68 20 96 96 N 8 13 29.91 1013 10 16 0.17 4.32
12:51 am 00:51 Clear 70 21.1 67 19.4 90 90 E 8 13 29.87 1012 10 16 0.18 4.57
1:51 am 01:51 Clear 68 20 67 19.4 96 96 Calm 29.85 1011 10 16 0.00 0.00
2:51 am 02:51 Clear 69 20.6 66 18.9 90 90 Calm 29.85 1011 10 16 0.00 0.00
3:51 am 03:51 Clear 67 19.4 66 18.9 97 97 ESE 5 7 29.86 1011 10 16 0.00 0.00
4:51 am 04:51 Clear 66 18.9 66 18.9 100 100 SE 5 7 29.89 1012 10 16 0.00 0.00
5:51 am 05:51 Mostly Clear 66 18.9 65 18.3 96 96 ESE 7 11 29.90 1013 10 16 0.00 0.00
6:51 am 06:51 Sunny 68 20 64 17.8 87 87 E 7 11 29.92 1013 10 16 0.00 0.00
7:51 am 07:51 Sunny 74 23.3 63 17.2 69 69 SE 7 11 29.92 1013 10 16 0.00 0.00
8:51 am 08:51 Sunny 77 25 64 17.8 64 64 SSE 7 11 29.93 1014 10 16 0.00 0.00
9:51 am 09:51 Sunny 81 27.2 61 16.1 51 51 SE 5 7 29.92 1013 10 16 0.00 0.00
10:51 am 10:51 Sunny 83 28.3 61 16.1 48 48 S 3 6 29.91 1013 10 16 0.00 0.00
11:51 am 11:51 Sunny 85 29.4 61 16.1 45 45 S 6 9 29.91 1013 10 16 0.00 0.00
12:51 pm 12:51 Sunny 86 30 62 16.7 45 45 SSW 8 13 29.87 1011 10 16 0.00 0.00
1:51 pm 13:51 Sunny 89 31.7 62 16.7 41 41 VRB 3 6 29.83 1010 10 16 0.00 0.00
2:51 pm 14:51 Sunny 91 32.8 60 15.6 36 36 VRB 3 6 29.80 1009 10 16 0.00 0.00
3:51 pm 15:51 Sunny 92 33.3 60 15.6 35 35 NW 9 15 29.79 1009 10 16 0.00 0.00
4:51 pm 16:51 Partly Cloudy 92 33.3 59 15 33 33 W 12 19 29.79 1009 10 16 0.00 0.00
5:29 pm 17:29 Mostly Cloudy with Nearby Thunderstorms 88 31.1 61 16.1 41 41 W 15 24 29.70 1006 10 16 0.00 0.00
5:51 pm 17:51 Cloudy 85 29.4 61 16.1 45 45 W 14 22 29.82 1010 10 16 0.00 0.00
6:35 pm 18:35 Mostly Clear with Thunderstorms 84 28.9 62 16.7 48 48 WNW 7 11 29.75 1007 10 16 0.00 0.00
6:51 pm 18:51 Partly Cloudy with Nearby Thunderstorms 82 27.8 63 17.2 53 53 W 6 9 29.83 1010 10 16 0.00 0.00
7:24 pm 19:24 Clear 80 26.7 63 17.2 56 56 SSE 7 11 29.80 1009 10 16 0.00 0.00
7:51 pm 19:51 Partly Cloudy 77 25 64 17.8 64 64 SSE 10 17 29.88 1012 10 16 0.00 0.00
7:59 pm 19:59 Mostly Cloudy with Nearby Thunderstorms 77 25 64 17.8 64 64 S 10 17 29.85 1011 10 16 0.00 0.00
8:51 pm 20:51 Mostly Cloudy with Nearby Thunderstorms 76 24.4 64 17.8 67 67 ESE 8 13 29.91 1013 10 16 0.00 0.00
9:13 pm 21:13 Mostly Cloudy with Light Rain 76 24.4 65 18.3 69 69 W 5 7 29.89 1012 10 16 0.01 0.13
9:51 pm 21:51 Mostly Cloudy with Light Rain 75 23.9 66 18.9 74 74 N 3 6 29.92 1013 10 16 0.01 0.13
10:51 pm 22:51 Clear 74 23.3 68 20 82 82 WNW 5 7 29.89 1012 10 16 0.01 0.13
11:51 pm 23:51 Clear 72 22.2 65 18.3 79 79 Calm 29.89 1012 10 16 0.00 0.00

Powered by Vaisala Xweather